CAPE
178 206 188 148 94 0 0 0 40 121 21 1 0 41 195 272 446 154 549 608 660 1005 895 940 332 209 56 300 771 552 420 679 288 178 159 0 0 117 168 178 307 422 654
175 185 98 174 82 1 0 0 0 114 81 28 20 103 59 207 501 550 762 711 809 1012 969 694 106 354 599 855 813 675 180 172 178 469 0 103 0 74 28 71 283 286 95
140 132 91 127 83 3 0 0 0 39 209 102 116 377 348 393 669 671 730 514 366 919 1079 811 477 263 276 263 400 933 629 302 258 311 166 245 190 91 9 0 77 348 156
58 117 77 108 108 18 22 0 0 0 118 231 322 460 417 408 206 387 591 678 808 962 783 711 594 352 35 133 161 1059 362 261 852 489 476 112 19 781 358 10 64 4 1
9 78 111 102 71 42 85 75 43 1 98 218 288 290 197 161 163 347 670 382 633 1053 697 827 621 495 132 0 299 982 870 1073 1077 934 727 446 22 126 293 457 72 3 0
1 82 120 91 50 79 163 179 122 0 102 254 372 388 310 105 263 464 597 575 428 578 842 815 484 346 341 155 281 836 966 940 894 845 772 694 814 964 676 528 374 285 70
49 47 45 79 43 161 242 269 140 36 43 208 344 372 223 85 260 334 512 364 388 587 624 886 699 506 386 86 2 664 841 898 866 648 665 621 920 804 548 273 224 521 449
78 36 72 29 82 161 337 250 77 24 0 146 301 366 357 77 38 241 299 400 348 443 446 740 908 585 541 339 0 659 804 721 883 774 555 284 582 503 580 736 275 392 68
18 59 94 164 162 131 462 294 136 39 5 63 258 324 416 300 278 241 242 226 468 249 139 400 855 564 665 566 675 771 831 1034 843 631 513 561 704 513 653 474 526 334 500
5 40 49 123 112 56 129 435 357 189 132 72 155 305 432 487 321 260 423 241 361 242 99 401 465 770 961 924 471 811 686 575 696 724 928 633 666 865 783 821 631 464 152
20 2 64 79 36 68 152 248 471 479 360 325 220 253 405 495 580 471 476 647 376 240 350 603 539 631 726 809 715 603 659 667 743 593 687 683 473 568 361 895 538 678 489
68 64 38 42 25 60 68 111 187 179 139 155 375 515 498 626 678 527 710 898 841 204 297 286 268 331 367 634 927 921 898 807 732 610 598 604 832 559 438 1001 543 820 605
3 79 90 66 94 121 129 83 40 65 16 10 79 257 350 512 687 806 886 922 1028 406 188 131 119 49 26 136 623 927 707 727 750 818 784 547 564 661 526 431 559 514 692
3 2 1 4 25 26 68 99 117 96 20 39 42 118 37 82 208 327 610 680 902 697 336 223 97 2 0 11 226 680 813 672 688 736 834 801 889 877 690 504 520 487 451
3 3 1 1 2 3 33 123 107 68 37 35 22 39 74 73 64 32 61 316 612 836 609 354 440 395 494 690 804 806 974 980 771 680 673 869 986 1121 1006 941 1052 923 762
4 4 3 1 1 3 2 3 1 4 12 31 34 52 16 4 6 3 8 4 41 142 346 609 668 714 1125 1519 1309 923 902 1001 1045 1077 964 758 845 869 902 487 376 815 1127
1 1 1 2 2 1 1 2 1 0 1 1 2 2 3 0 0 0 0 2 1 15 45 152 322 530 490 883 695 456 419 576 601 738 808 845 1014 1020 937 1100 840 423 41
0 0 0 0 1 2 1 0 0 0 0 0 3 5 4 2 0 0 0 0 0 0 8 54 54 97 249 43 36 1 5 199 177 182 356 594 762 899 989 944 876 812 756
0 0 0 0 0 0 0 0 0 0 0 0 0 0 0 0 4 0 1 0 0 0 0 12 30 84 98 1 1 62 133 235 260 230 267 317 374 256 14 52 462 580 635
0 0 0 0 0 0 0 0 0 0 0 0 0 0 0 0 0 0 0 0 0 0 0 0 34 5 0 0 0 0 0 0 0 0 8 1 1 1 1 1 0 0 32
0 0 0 0 0 0 0 0 0 0 0 0 0 0 0 0 0 0 0 0 0 0 0 18 8 0 0 0 0 0 0 0 0 0 0 0 0 0 0 0 0 1 0
0 0 0 0 0 0 0 0 0 0 0 0 0 0 0 0 0 0 0 0 0 0 0 0 0 0 0 0 0 0 0 0 0 0 0 0 0 0 0 0 0 0 1
0 0 0 0 0 0 0 0 0 0 0 0 0 0 0 0 0 0 0 0 0 0 0 0 0 0 0 0 0 0 0 0 0 0 0 0 0 0 0 0 0 0 0
0 0 0 0 0 0 0 0 0 0 0 0 0 0 0 0 0 0 0 0 0 0 0 0 0 0 0 0 0 0 0 0 0 0 0 0 0 0 0 0 0 0 0
0 0 0 0 0 0 0 0 0 0 0 0 0 0 0 0 0 0 0 0 0 0 0 0 0 0 0 0 0 0 0 0 0 0 0 0 0 0 0 0 0 0 0
0 0 0 0 0 0 0 0 0 0 0 0 0 0 0 0 0 0 0 0 0 0 0 0 0 0 0 0 0 0 0 0 1 0 0 0 0 0 0 0 0 0 0
CIN
-88 -93 -111 -119 -131 -0 -0 -0 -177 -177 -240 -14 -0 -187 -118 -121 -110 -150 -117 -112 -118 -97 -104 -123 -176 -195 -216 -173 -150 -161 -160 -150 -245 -196 -217 -1 -1 -397 -371 -404 -387 -383 -350
-80 -111 -123 -119 -150 -25 -0 -0 -0 -182 -175 -211 -257 -150 -159 -144 -134 -123 -92 -107 -92 -93 -101 -121 -180 -162 -131 -133 -137 -154 -172 -197 -253 -134 -0 -197 -0 -331 -111 -437 -434 -428 -509
-108 -113 -123 -134 -150 -89 -0 -0 -0 -89 -131 -134 -157 -134 -127 -125 -91 -89 -96 -107 -109 -85 -88 -108 -131 -177 -170 -141 -160 -134 -142 -121 -211 -233 -189 -141 -130 -388 -124 -125 -539 -432 -506
-130 -119 -125 -147 -175 -195 -110 -0 -0 -0 -164 -147 -94 -71 -75 -62 -131 -123 -110 -99 -96 -85 -96 -109 -122 -153 -235 -159 -166 -132 -181 -217 -113 -193 -234 -306 -239 -109 -159 -425 -479 -117 -68
-135 -111 -147 -194 -185 -178 -180 -208 -219 -7 -178 -139 -91 -99 -126 -159 -168 -143 -96 -120 -110 -89 -99 -94 -130 -137 -185 -0 -147 -118 -124 -146 -133 -151 -174 -197 -340 -388 -275 -174 -360 -24 -0
-63 -99 -133 -135 -140 -162 -147 -167 -190 -0 -171 -140 -126 -99 -108 -169 -138 -107 -92 -98 -119 -115 -98 -98 -135 -150 -154 -171 -164 -139 -122 -128 -146 -171 -180 -164 -131 -128 -187 -228 -308 -366 -292
-160 -117 -105 -126 -159 -159 -177 -175 -197 -86 -153 -144 -137 -107 -134 -181 -127 -104 -124 -147 -132 -114 -108 -99 -120 -134 -136 -213 -45 -126 -122 -130 -129 -154 -167 -197 -169 -202 -234 -318 -301 -253 -301
-145 -154 -92 -126 -142 -144 -171 -171 -225 -213 -0 -179 -141 -143 -134 -190 -216 -178 -191 -149 -150 -130 -137 -124 -111 -136 -131 -136 -0 -137 -115 -137 -137 -146 -189 -222 -200 -234 -210 -172 -243 -188 -349
-173 -172 -89 -117 -149 -126 -124 -148 -214 -223 -82 -203 -151 -150 -128 -138 -135 -158 -192 -180 -165 -195 -198 -166 -125 -159 -134 -128 -116 -117 -96 -96 -127 -155 -178 -187 -194 -233 -222 -239 -230 -202 -118
-155 -114 -94 -81 -144 -216 -195 -115 -152 -144 -178 -183 -174 -160 -133 -121 -140 -153 -144 -190 -172 -200 -234 -176 -166 -119 -95 -96 -133 -100 -112 -118 -128 -131 -121 -162 -182 -178 -200 -198 -216 -234 -235
-125 -138 -66 -66 -112 -128 -166 -149 -122 -101 -113 -129 -145 -129 -123 -116 -126 -129 -126 -132 -176 -213 -193 -163 -167 -137 -116 -96 -112 -118 -110 -104 -102 -129 -124 -119 -161 -150 -199 -183 -209 -179 -201
-119 -82 -114 -90 -63 -112 -99 -155 -148 -158 -179 -177 -107 -97 -97 -90 -89 -126 -115 -103 -124 -223 -198 -186 -180 -165 -159 -130 -102 -83 -72 -90 -94 -102 -132 -118 -96 -135 -168 -140 -156 -143 -187
-50 -109 -89 -94 -100 -83 -76 -118 -112 -179 -187 -257 -201 -127 -118 -98 -87 -94 -102 -93 -89 -172 -223 -215 -210 -265 -198 -203 -141 -107 -126 -112 -108 -98 -109 -121 -115 -103 -140 -160 -151 -166 -146
-0 -0 -0 -75 -177 -152 -113 -108 -61 -66 -120 -139 -194 -141 -97 -196 -168 -145 -115 -124 -101 -118 -157 -193 -217 -26 -0 -143 -165 -106 -108 -126 -108 -115 -103 -110 -103 -106 -124 -123 -117 -140 -143
-0 -0 -0 -0 -0 -0 -145 -76 -53 -102 -85 -148 -141 -158 -119 -157 -207 -245 -242 -178 -121 -103 -128 -168 -142 -144 -133 -109 -97 -92 -72 -78 -96 -106 -113 -105 -99 -90 -100 -90 -75 -102 -116
-0 -0 -0 -0 -0 -0 -0 -215 -0 -188 -63 -103 -116 -110 -159 -176 -132 -146 -229 -273 -273 -223 -166 -125 -118 -115 -81 -50 -44 -66 -73 -71 -63 -66 -81 -116 -109 -96 -92 -158 -204 -141 -75
-0 -0 -0 -0 -0 -0 -0 -0 -0 -0 -0 -0 -0 -0 -0 -0 -0 -0 -0 -0 -36 -268 -262 -225 -165 -115 -142 -104 -134 -180 -178 -147 -134 -112 -104 -100 -70 -76 -99 -88 -117 -184 -417
-0 -0 -0 -0 -0 -0 -0 -0 -0 -0 -0 -0 -0 -0 -0 -0 -0 -0 -0 -0 -0 -0 -205 -226 -253 -259 -166 -368 -238 -0 -41 -228 -223 -201 -157 -126 -124 -111 -86 -86 -103 -110 -118
-0 -0 -0 -0 -0 -0 -0 -0 -0 -0 -0 -0 -0 -0 -0 -0 -0 -0 -0 -0 -0 -0 -0 -259 -220 -183 -161 -0 -0 -250 -225 -181 -162 -160 -155 -147 -147 -195 -47 -165 -141 -137 -143
-0 -0 -0 -0 -0 -0 -0 -0 -0 -0 -0 -0 -0 -0 -0 -0 -0 -0 -0 -0 -0 -0 -0 -0 -183 -37 -0 -0 -0 -0 -0 -0 -0 -0 -229 -0 -0 -0 -0 -0 -0 -0 -263
-0 -0 -0 -0 -0 -0 -0 -0 -0 -0 -0 -0 -0 -0 -0 -0 -0 -0 -0 -0 -0 -0 -0 -191 -163 -0 -0 -0 -0 -0 -0 -0 -0 -0 -0 -0 -0 -0 -0 -0 -0 -0 -0
-0 -0 -0 -0 -0 -0 -0 -0 -0 -0 -0 -0 -0 -0 -0 -0 -0 -0 -0 -0 -0 -0 -0 -0 -0 -0 -0 -0 -0 -0 -0 -0 -0 -0 -0 -0 -0 -0 -0 -0 -0 -0 -0
-0 -0 -0 -0 -0 -0 -0 -0 -0 -0 -0 -0 -0 -0 -0 -0 -0 -0 -0 -0 -0 -0 -0 -0 -0 -0 -0 -0 -0 -0 -0 -0 -0 -0 -0 -0 -0 -0 -0 -0 -0 -0 -0
-0 -0 -0 -0 -0 -0 -0 -0 -0 -0 -0 -0 -0 -0 -0 -0 -0 -0 -0 -0 -0 -0 -0 -0 -0 -0 -0 -0 -0 -0 -0 -0 -0 -0 -0 -0 -0 -0 -0 -0 -0 -0 -0
-0 -0 -0 -0 -0 -0 -0 -0 -0 -0 -0 -0 -0 -0 -0 -0 -0 -0 -0 -0 -0 -0 -0 -0 -0 -0 -0 -0 -0 -0 -0 -0 -0 -0 -0 -0 -0 -0 -0 -0 -0 -0 -0
-0 -0 -0 -0 -0 -0 -0 -0 -0 -0 -0 -0 -0 -0 -0 -0 -0 -0 -0 -0 -0 -0 -0 -0 -0 -0 -0 -0 -0 -0 -0 -0 -0 -0 -0 -0 -0 -0 -0 -0 -0 -0 -0
Wind_Speed
14 16 13 12 10 7 7 9 8 6 7 3 3 2 3 2 2 4 5 5 2 4 3 3 3 1 1 0 2 2 4 3 3 3 4 3 3 3 4 3 4 5 5
16 15 14 14 13 12 10 8 9 8 5 5 3 2 2 1 1 1 2 4 3 3 3 2 1 2 1 3 4 3 2 2 3 2 2 4 5 4 2 2 4 6 3
18 17 16 17 14 12 12 10 10 10 7 6 4 3 3 2 2 1 1 3 4 3 4 4 2 3 2 1 1 2 3 2 2 2 3 2 2 3 3 2 3 4 3
18 19 17 16 18 16 12 10 9 9 7 7 5 4 3 3 3 3 2 1 3 5 4 4 3 2 2 1 1 2 2 1 3 2 3 1 2 0 4 3 3 2 5
19 20 21 21 16 14 14 11 8 7 7 6 7 4 3 2 1 2 2 2 2 2 2 3 5 4 2 2 1 1 2 1 2 2 2 3 2 2 2 2 5 3 4
16 16 14 13 14 11 10 10 9 7 8 7 7 7 7 5 4 2 2 3 1 2 3 4 3 3 3 3 1 1 1 2 2 1 2 2 1 2 2 1 2 2 4
14 13 10 11 9 12 11 8 8 7 7 7 7 7 6 6 6 5 4 4 2 2 4 4 5 3 3 3 3 1 2 2 1 1 1 1 0 1 0 1 2 1 3
12 15 1 4 7 9 10 12 10 9 8 7 7 6 6 4 4 5 4 4 4 3 3 4 4 5 5 4 4 2 1 2 1 2 2 1 1 0 1 1 1 3 3
9 15 9 8 6 6 8 11 11 10 9 8 6 6 6 5 5 6 4 3 4 4 5 4 4 5 5 4 3 2 2 1 2 2 2 1 1 1 1 1 2 3 1
8 9 7 5 6 3 2 6 6 5 3 4 6 5 6 6 5 4 6 5 4 4 5 6 6 5 4 3 3 2 2 3 3 2 2 1 1 2 1 1 1 1 3
5 9 8 7 9 3 4 4 6 7 6 6 4 5 5 6 5 5 5 5 4 6 6 5 5 5 5 4 4 5 4 4 3 3 3 4 2 2 2 1 1 1 2
4 6 12 13 9 7 3 6 6 6 5 2 3 5 4 5 5 5 6 5 5 4 5 5 4 5 5 5 6 6 5 6 5 5 3 5 3 3 3 2 2 2 2
6 7 10 11 12 12 9 8 7 8 6 4 5 2 1 3 5 6 6 6 5 6 6 6 6 6 6 6 6 6 6 6 6 6 5 6 3 4 3 3 3 2 2
6 6 6 7 6 6 6 9 8 6 7 5 7 6 6 5 4 4 5 5 6 6 6 6 6 6 6 6 6 6 5 6 6 6 6 6 5 6 6 4 5 3 3
7 5 6 5 7 5 5 6 6 6 6 7 6 5 6 8 8 6 6 4 3 4 5 6 6 6 6 5 7 6 6 6 6 6 6 6 8 9 8 4 6 3 3
8 6 6 6 7 6 6 6 6 6 6 6 5 2 5 6 7 9 8 7 8 6 4 4 5 6 6 9 10 7 5 6 6 6 6 6 8 9 13 11 13 8 5
10 8 7 6 6 8 8 9 9 9 9 8 6 4 5 6 8 6 6 7 6 6 6 7 6 5 5 9 8 8 5 5 5 6 5 6 6 8 6 8 10 9 12
10 8 7 9 10 9 11 11 11 10 10 8 6 6 5 5 8 7 8 7 8 8 7 5 5 5 5 9 5 3 4 4 5 6 6 6 7 6 6 6 7 7 6
10 10 10 11 12 12 9 12 11 11 12 10 9 7 6 7 5 6 4 2 3 4 4 4 4 4 5 13 10 4 1 2 4 5 6 5 6 7 7 5 7 8 8
11 12 12 12 13 7 9 12 10 11 10 8 7 7 8 8 6 5 2 2 1 4 4 3 4 9 7 11 10 9 5 6 5 7 7 10 7 8 10 6 4 6 7
12 11 11 11 7 6 9 11 8 8 5 6 6 7 7 6 6 4 5 7 6 7 9 8 6 6 5 5 11 11 5 4 4 4 5 3 9 12 11 2 4 6 7
11 11 12 9 6 6 10 8 8 3 5 6 6 7 7 6 6 7 7 7 7 8 8 7 7 6 9 14 15 16 11 10 5 4 3 4 10 12 12 8 9 11 8
10 9 11 10 5 6 7 8 3 5 5 6 7 7 6 7 6 7 7 6 7 6 6 6 6 6 6 8 17 16 15 12 6 5 8 12 11 10 7 8 11 10 4
9 8 10 9 6 6 7 6 5 5 6 7 6 5 6 6 6 4 4 5 5 5 6 6 5 5 6 9 9 9 9 11 8 9 7 8 9 9 8 7 5 4 4
6 6 8 7 7 6 6 5 5 6 6 6 5 5 5 5 5 5 4 4 4 4 4 4 4 6 7 8 9 7 8 7 6 8 3 5 5 8 7 6 5 5 5
6 6 7 8 7 6 6 5 5 6 6 6 5 4 4 4 4 4 4 8 9 10 9 7 5 4 4 9 13 14 16 11 8 3 4 5 4 5 6 7 8 7 8
Wind_Direction
171 170 166 156 156 150 158 165 153 141 130 115 118 101 157 163 167 171 195 202 182 176 178 159 151 114 83 98 5 13 25 354 2 14 337 342 334 252 255 241 246 260 263
163 166 168 167 174 172 174 174 162 160 160 143 146 135 134 108 152 121 216 178 204 187 150 151 142 123 60 30 48 44 360 343 7 113 111 5 335 337 296 285 270 266 279
166 172 176 170 171 184 182 176 171 165 163 143 115 70 67 53 43 332 187 234 208 228 185 179 186 110 96 41 33 38 54 360 331 51 126 36 289 323 323 323 256 267 277
171 172 174 172 188 189 186 170 171 171 162 155 143 144 158 172 205 197 198 233 239 216 190 171 157 168 144 164 350 5 73 58 13 8 36 83 159 146 339 327 324 283 270
177 176 180 185 185 180 182 178 162 166 147 161 155 148 153 211 223 193 212 186 261 215 263 204 158 173 172 179 205 80 79 65 34 31 360 18 20 68 122 305 323 327 271
170 181 188 176 178 178 180 177 165 170 160 162 153 166 172 184 184 184 188 225 238 293 208 193 175 167 172 162 178 128 128 121 97 45 45 84 71 328 6 7 312 275 296
142 140 169 180 169 173 172 174 167 172 173 169 163 159 168 180 196 204 197 191 188 233 236 194 183 183 210 197 170 212 196 126 137 111 46 48 4 178 183 95 304 320 312
141 114 94 181 175 177 172 175 181 173 180 173 180 169 169 190 203 201 193 195 192 205 217 228 217 204 196 211 189 192 240 231 163 212 162 166 286 236 160 136 87 346 334
149 144 150 133 101 163 175 191 187 186 178 179 177 182 172 192 205 211 186 210 206 209 230 223 227 221 220 194 206 201 211 260 283 218 181 175 231 236 198 153 170 152 347
110 142 148 125 88 74 123 170 174 187 157 181 187 190 189 195 209 201 207 207 234 218 213 215 221 223 229 226 207 265 251 242 262 258 247 195 238 241 196 193 200 161 144
132 151 150 134 108 102 58 136 160 156 169 178 192 203 213 218 202 207 238 233 226 207 213 217 201 208 214 213 204 229 245 252 269 265 260 280 260 253 252 215 185 167 147
141 183 161 147 140 140 116 112 100 102 87 99 195 210 203 219 246 234 235 243 233 208 224 204 224 231 222 221 212 226 234 234 261 266 239 264 269 270 247 226 229 218 206
105 133 150 161 164 164 166 123 109 97 87 63 68 84 17 270 248 235 222 232 232 219 198 207 223 228 228 222 226 224 232 231 243 258 256 256 231 266 244 237 246 223 233
92 101 112 129 124 124 142 134 131 139 113 91 64 54 38 30 359 302 270 235 224 210 215 216 217 220 229 228 235 233 233 234 241 244 250 256 251 248 264 250 258 230 232
97 78 104 102 108 116 122 122 148 124 119 99 69 47 46 43 33 17 10 352 319 269 222 211 225 231 223 226 221 220 226 234 251 253 251 253 248 240 235 225 263 250 250
102 101 91 100 96 113 107 101 87 72 96 88 83 45 93 74 49 38 16 26 25 360 329 280 257 239 233 227 230 221 216 223 233 252 260 254 254 251 253 241 241 227 224
103 101 103 91 82 75 80 75 75 74 73 80 70 36 58 65 65 49 28 24 20 2 348 18 4 317 285 269 258 239 226 228 234 241 249 270 262 251 255 262 258 254 234
98 84 76 82 78 77 66 68 64 65 66 56 54 53 46 78 79 60 36 19 12 6 325 0 344 324 304 346 320 296 270 267 260 255 252 251 265 264 262 270 275 265 252
95 86 82 78 74 71 69 68 60 59 57 47 36 24 33 58 40 71 56 344 30 305 303 321 313 356 360 354 342 16 340 328 309 276 275 275 280 316 347 290 283 290 284
102 99 92 86 78 53 71 71 55 52 43 32 25 18 13 31 23 23 299 78 301 267 293 340 19 61 56 19 358 51 34 29 11 357 349 49 50 30 24 8 330 298 294
107 100 93 94 91 76 78 71 66 54 32 31 35 30 21 24 8 6 24 10 1 10 42 61 51 44 40 30 357 24 43 20 1 11 337 345 333 313 311 340 291 276 308
107 104 98 89 84 85 92 85 72 32 45 47 48 35 20 20 16 26 21 30 31 26 31 38 40 19 20 25 6 359 9 355 349 338 314 323 334 313 316 314 270 273 286
117 112 113 105 75 87 98 97 95 82 74 59 42 30 26 26 24 39 34 40 30 34 30 27 21 15 28 23 11 11 2 348 332 313 316 314 311 315 312 297 302 304 277
119 118 112 108 102 85 87 104 86 74 75 65 48 39 47 36 33 33 38 46 33 30 34 23 13 11 21 21 4 354 352 353 346 335 312 303 291 280 278 311 306 292 284
126 134 131 131 132 121 105 106 100 90 73 67 61 48 52 50 41 40 49 44 52 73 54 27 360 8 20 0 333 321 345 333 323 319 323 345 351 340 337 328 314 311 307
137 131 131 131 139 125 119 107 95 89 92 76 50 47 48 37 46 47 24 11 31 38 43 43 41 15 37 336 339 339 336 341 360 29 348 343 337 326 316 320 321 323 314